Pine River, MN

2:13 PM CDT on September 19, 2017 (GMT -0500)
Pine River Regional

Weather History for KPWC - August, 2012

Change the Weather History Date:

Saturday, August 11, 2012

  Actual Average Record
Temperature  
Mean Temperature 58 °F -  
Max Temperature 73 °F 74 °F 89 °F (2007)
Min Temperature 44 °F 52 °F 39 °F (1997)
Degree Days  
Heating Degree Days 6    
Growing Degree Days 8 (Base 50)    
Moisture  
Dew Point 52 °F    
Average Humidity 78    
Maximum Humidity 100    
Minimum Humidity 46    
Precipitation  
Precipitation 0.00 in - - ()
Sea Level Pressure  
Sea Level Pressure 30.11 in    
Wind  
Wind Speed 1 mph (South)    
Max Wind Speed 9 mph    
Max Gust Speed -    
Visibility 9 miles    
Events Fog    
Averages and records for this station are not official NWS values.
T = Trace of Precipitation, MM = Missing Value Source: NWS Daily Summary

Daily Weather History Graph

Daily Weather History Graph

Search for Another Location

Airport or City:

Trip Planner

Search our weather history database for the weather conditions in past years. The results will help you decide how hot, cold, wet, or windy it might be!

Date:

Astronomy

Aug. 11, 2012 Rise Set
Actual Time 6:10 AM CDT 8:33 PM CDT
Civil Twilight 5:37 AM CDT 9:06 PM CDT
Nautical Twilight 4:55 AM CDT 9:48 PM CDT
Astronomical Twilight 4:07 AM CDT 10:36 PM CDT
Moon 12:33 AM CDT (8/11) 4:15 PM CDT (8/11)
Length of Visible Light 15h 29m
Length of Day
14h 22m
Waning Crescent, 32% of the Moon is Illuminated
Aug 11
Waning Crescent
Aug 17
New
Aug 24
First Quarter
Aug 31
Full
Sep 8
Last Quarter

Hourly Weather History & Observations

Time (CDT) Temp. Dew Point Humidity Pressure Visibility Wind Dir Wind Speed Gust Speed Precip Events Conditions
12:13 AM 51.8 °F 51.8 °F 100% 30.15 in 10.0 mi Calm Calm - N/A   Clear
12:33 AM 51.8 °F 48.2 °F 88% 30.15 in 10.0 mi Calm Calm - N/A   Clear
12:53 AM 50.0 °F 48.2 °F 94% 30.15 in 10.0 mi Calm Calm - N/A   Clear
1:13 AM 50.0 °F 50.0 °F 100% 30.15 in 10.0 mi Calm Calm - N/A   Clear
1:32 AM 48.2 °F 46.4 °F 93% 30.14 in 10.0 mi Calm Calm - N/A   Clear
1:53 AM 48.2 °F 48.2 °F 100% 30.14 in 10.0 mi Calm Calm - N/A   Clear
2:13 AM 48.2 °F 48.2 °F 100% 30.14 in 10.0 mi Calm Calm - N/A   Clear
2:32 AM 48.2 °F 48.2 °F 100% 30.14 in 10.0 mi Calm Calm - N/A   Clear
2:53 AM 46.4 °F 46.4 °F 100% 30.15 in 10.0 mi Calm Calm - N/A   Clear
3:13 AM 48.2 °F 46.4 °F 93% 30.15 in 10.0 mi Calm Calm - N/A   Clear
3:32 AM 46.4 °F 46.4 °F 100% 30.15 in 4.0 mi Calm Calm - N/A   Clear
3:53 AM 46.4 °F 46.4 °F 100% 30.15 in 10.0 mi Calm Calm - N/A   Clear
4:13 AM 46.4 °F 46.4 °F 100% 30.15 in 10.0 mi Calm Calm - N/A   Clear
4:32 AM 46.4 °F 44.6 °F 93% 30.15 in 10.0 mi Calm Calm - N/A   Clear
4:53 AM 46.4 °F 44.6 °F 93% 30.14 in 10.0 mi Calm Calm - N/A   Clear
5:13 AM 46.4 °F 46.4 °F 100% 30.14 in 1.0 mi Calm Calm - N/A   Mist
5:32 AM 44.6 °F 44.6 °F 100% 30.14 in 10.0 mi Calm Calm - N/A   Clear
5:53 AM 44.6 °F 44.6 °F 100% 30.14 in 7.0 mi Calm Calm - N/A   Clear
6:13 AM 44.6 °F 44.6 °F 100% 30.15 in 10.0 mi Calm Calm - N/A   Clear
6:32 AM 44.6 °F 44.6 °F 100% 30.15 in 10.0 mi Calm Calm - N/A   Mostly Cloudy
6:53 AM 46.4 °F 46.4 °F 100% 30.16 in 0.2 mi Calm Calm - N/A Fog Fog
7:13 AM 46.4 °F 46.4 °F 100% 30.15 in 0.2 mi Calm Calm - N/A Fog Fog
7:32 AM 48.2 °F 48.2 °F 100% 30.15 in 0.2 mi Calm Calm - N/A Fog Fog
7:53 AM 51.8 °F 51.8 °F 100% 30.15 in 2.5 mi Calm Calm - N/A   Mostly Cloudy
8:13 AM 53.6 °F 53.6 °F 100% 30.15 in 10.0 mi Calm Calm - N/A   Clear
8:32 AM 57.2 °F 57.2 °F 100% 30.15 in 10.0 mi Calm Calm - N/A   Clear
9:13 AM 62.6 °F 55.4 °F 77% 30.15 in 10.0 mi Calm Calm - N/A   Clear
9:32 AM 64.4 °F 53.6 °F 68% 30.14 in 10.0 mi Calm Calm - N/A   Clear
9:53 AM 66.2 °F 53.6 °F 64% 30.13 in 10.0 mi Calm Calm - N/A   Clear
10:13 AM 66.2 °F 53.6 °F 64% 30.13 in 10.0 mi Calm Calm - N/A   Clear
10:32 AM 68.0 °F 50.0 °F 52% 30.13 in 10.0 mi SSE 3.5 mph - N/A   Clear
10:53 AM 68.0 °F 50.0 °F 52% 30.12 in 10.0 mi South 5.8 mph - N/A   Clear
11:13 AM 69.8 °F 50.0 °F 49% 30.12 in 10.0 mi SSW 6.9 mph - N/A   Clear
11:33 AM 69.8 °F 51.8 °F 53% 30.12 in 10.0 mi South 5.8 mph - N/A   Clear
11:53 AM 69.8 °F 51.8 °F 53% 30.12 in 10.0 mi South 4.6 mph - N/A   Clear
12:13 PM 71.6 °F 51.8 °F 50% 30.12 in 10.0 mi South 6.9 mph - N/A   Clear
12:33 PM 71.6 °F 51.8 °F 50% 30.11 in 10.0 mi South 6.9 mph - N/A   Clear
12:52 PM 71.6 °F 51.8 °F 50% 30.11 in 10.0 mi South 5.8 mph - N/A   Clear
1:13 PM 71.6 °F 50.0 °F 46% 30.10 in 10.0 mi South 3.5 mph - N/A   Clear
1:33 PM 71.6 °F 51.8 °F 50% 30.09 in 10.0 mi South 3.5 mph - N/A   Clear
1:52 PM 71.6 °F 51.8 °F 50% 30.09 in 10.0 mi SSE 9.2 mph - N/A   Clear
2:13 PM 73.4 °F 51.8 °F 47% 30.09 in 10.0 mi South 6.9 mph - N/A   Clear
2:32 PM 73.4 °F 51.8 °F 47% 30.09 in 10.0 mi South 4.6 mph - N/A   Clear
2:53 PM 71.6 °F 53.6 °F 53% 30.08 in 10.0 mi South 6.9 mph - N/A   Scattered Clouds
3:13 PM 71.6 °F 51.8 °F 50% 30.08 in 10.0 mi SW 3.5 mph - N/A   Scattered Clouds
3:32 PM 71.6 °F 51.8 °F 50% 30.08 in 10.0 mi SSW 3.5 mph - N/A   Mostly Cloudy
3:53 PM 71.6 °F 51.8 °F 50% 30.08 in 10.0 mi SSW 5.8 mph - N/A   Scattered Clouds
4:12 PM 71.6 °F 51.8 °F 50% 30.08 in 10.0 mi WSW 5.8 mph - N/A   Clear
4:33 PM 69.8 °F 51.8 °F 53% 30.08 in 10.0 mi SW 3.5 mph - N/A   Clear
4:53 PM 69.8 °F 51.8 °F 53% 30.08 in 10.0 mi Calm Calm - N/A   Clear
5:12 PM 69.8 °F 53.6 °F 56% 30.07 in 10.0 mi Calm Calm - N/A   Clear
5:33 PM 69.8 °F 53.6 °F 56% 30.06 in 10.0 mi Calm Calm - N/A   Clear
5:53 PM 69.8 °F 53.6 °F 56% 30.06 in 10.0 mi Calm Calm - N/A   Clear
6:13 PM 69.8 °F 55.4 °F 60% 30.05 in 10.0 mi Calm Calm - N/A   Clear
6:33 PM 69.8 °F 55.4 °F 60% 30.05 in 10.0 mi Calm Calm - N/A   Clear
6:53 PM 66.2 °F 59.0 °F 78% 30.05 in 10.0 mi Calm Calm - N/A   Clear
7:13 PM 66.2 °F 59.0 °F 78% 30.05 in 10.0 mi Calm Calm - N/A   Clear
7:33 PM 64.4 °F 57.2 °F 77% 30.05 in 10.0 mi Calm Calm - N/A   Clear
7:53 PM 64.4 °F 60.8 °F 88% 30.05 in 10.0 mi Calm Calm - N/A   Clear
8:13 PM 62.6 °F 60.8 °F 94% 30.05 in 10.0 mi Calm Calm - N/A   Clear
8:33 PM 62.6 °F 60.8 °F 94% 30.05 in 10.0 mi Calm Calm - N/A   Clear
8:53 PM 62.6 °F 57.2 °F 82% 30.06 in 10.0 mi Calm Calm - N/A   Clear
9:13 PM 60.8 °F 59.0 °F 94% 30.06 in 10.0 mi Calm Calm - N/A   Clear
9:32 PM 60.8 °F 59.0 °F 94% 30.07 in 10.0 mi Calm Calm - N/A   Clear
9:53 PM 60.8 °F 59.0 °F 94% 30.07 in 10.0 mi Calm Calm - N/A   Clear
10:13 PM 60.8 °F 59.0 °F 94% 30.07 in 10.0 mi Calm Calm - N/A   Clear
10:32 PM 60.8 °F 57.2 °F 88% 30.07 in 10.0 mi Calm Calm - N/A   Clear
10:53 PM 59.0 °F 57.2 °F 94% 30.07 in 10.0 mi Calm Calm - N/A   Clear
11:53 PM 57.2 °F 57.2 °F 100% 30.06 in 10.0 mi Calm Calm - N/A   Clear